{"data":{"norad_id":47840,"intl_designator":"2021-018BF","name":"STARLINK-2432","alt_names":[],"object_type":"PAYLOAD","status":"ACTIVE","operator":null,"country":"US","launch_date":"2021-03-11","launch_site_code":"AFETR","launch_vehicle":null,"mission":null,"orbit_class":"UNKNOWN","rcs_meters":null,"size_class":null,"mass_kg":null,"dimensions":null,"purposes":["comms"],"wikipedia_slug":null,"has_3d_model":false,"image_url":null,"decayed_at":null,"tle_current":{"epoch":"2026-09-19T23:57:12.543840Z","epoch_age_seconds":72588,"freshness":"FRESH","line1":"1 47840U 21018BF  26262.99806185 -.00000056  00000+0  99637-5 0  9999","line2":"2 47840  53.1577  54.9427 0001053 143.6097 216.4977 15.31704199306536","mean_motion":15.31704199,"eccentricity":0.0001053,"inclination_deg":53.1577,"raan_deg":54.9427,"arg_perigee_deg":143.6097,"mean_anomaly_deg":216.4977,"bstar":9.9637e-6,"rev_number":30653,"period_min":94.012930234188,"perigee_km":470.00629282418,"apogee_km":471.4486636833,"semimajor_km":6848.8644782537,"source":"CELESTRAK","updated_at":"2026-09-20T09:00:38.753332Z"}}}